Regional Weather Roundup
Issued by NWS

Home | Current Version | Previous Version | Text Only | Print | Product List | Glossary Off
Versions: 1 2 3 4 5 6 7 8 9 10 11 12 13 14 15 16 17 18 19 20 21 22 23 24 25 26 27 28 29 30 31 32 33 34 35 36 37 38 39 40 41 42 43 44 45 46 47 48 49 50

000
ASUS43 KLSX 231507
RWRMO

WEATHER SUMMARY FOR MISSOURI
NATIONAL WEATHER SERVICE SPRINGFIELD MO
900 AM CST SUN NOV 23 2014

NOTE: "FAIR" INDICATES FEW OR NO CLOUDS BELOW 12,000 FEET WITH NO
       SIGNIFICANT WEATHER AND/OR OBSTRUCTIONS TO VISIBILITY.
       CURRENT SKY AND/OR WEATHER CONDITIONS ARE NOT AVAILABLE FOR
       CHILLICOTHE AND FARMINGTON.

MOZ001>031-035>038-043-044-053-054-231600-
...NORTHERN AND WESTERN MISSOURI...

CITY           SKY/WX    TMP DP  RH WIND       PRES   REMARKS
KANSAS CTY INT DRZL/FOG  53  53 100 S7        29.51S VSB 3/4
KANSAS C DTWN  LGT RAIN  55  53  93 S3        29.51S FOG
ST JOSEPH      LGT RAIN  53  52  96 SE7       29.50F FOG
CHILLICOTHE      N/A     54  52  93 SE7       29.53F
KIRKSVILLE     LGT RAIN  53  52  96 S15       29.56F FOG

$$
MOZ066>068-077>081-088>096-101>105-231600-
...SOUTHWEST MISSOURI...

CITY           SKY/WX    TMP DP  RH WIND       PRES   REMARKS
SPRINGFIELD    LGT RAIN  54  52  93 SE14      29.55F FOG
JOPLIN         CLOUDY    58  55  90 S10       29.52F

$$
MOZ032>034-039>042-045>050-055>058-069>072-231600-
...CENTRAL MISSOURI...

CITY           SKY/WX    TMP DP  RH WIND       PRES   REMARKS
COLUMBIA       LGT RAIN  53  52  96 S10       29.59F
JEFFERSON CITY CLOUDY    54  52  93 S7        29.60S
ROLLA          RAIN      53  51  93 SE13G22   29.58F FOG
SEDALIA        CLOUDY    56  52  86 S12       29.55F
WHITEMAN AFB   CLOUDY    55  53  92 S10       29.53F
WARRENSBURG    CLOUDY    54  52  94 SE10      29.52F
OSAGE BEACH    CLOUDY    55  52  88 S7        29.59S

$$
MOZ051-052-059>065-231600-
...EAST CENTRAL MISSOURI...

CITY           SKY/WX    TMP DP  RH WIND       PRES   REMARKS
ST LOUIS INTL  LGT RAIN  55  49  80 SE14      29.67F
SPIRIT OF STL  CLOUDY    53  50  89 SE3       29.66F
ST CHARLES     LGT RAIN  51  49  92 E10       29.66F FOG

$$
MOZ072>076-082>087-097>100-106>115-231600-
...SOUTH CENTRAL AND SOUTHEAST MISSOURI...

CITY           SKY/WX    TMP DP  RH WIND       PRES   REMARKS
CAPE GIRARDEAU CLOUDY    57  50  77 SE13      29.72F
FARMINGTON     CLOUDY    54  52  94 E14G20    29.69F
POPLAR BLUFF   LGT RAIN  55  52  89 SE9       29.68F
WEST PLAINS    LGT RAIN  53  51  93 SE10      29.63F FOG

$$



USA.gov is the U.S. government's official web portal to all federal, state and local government web resources and services.